Terminal Aerodrome Forecast
Issued by NWS Atlanta, GA

Home | Current Version | Previous Version | Text Only | Print | Product List | Glossary On
Versions: 1 2 3 4 5 6 7 8 9 10 11 12 13 14 15 16 17 18 19 20 21 22 23 24 25 26 27 28 29 30 31 32 33 34 35 36 37
444
FTAK31 PAJN 031733
TAFAHN
TAF
PAHN 031733Z 0318/0418 31010KT 3SM -SHSN BR OVC012
      TEMPO 0318/0322 2SM -SHSN
     FM032200 30010KT P6SM VCSH BKN025 OVC050
     FM041600 30014KT P6SM SCT060
      AMD LTD TO CLD VIS AND WIND=

USA.gov is the U.S. government's official web portal to all federal, state and local government web resources and services.